OK1KZE-6 Weather Reports


Display with metric or nautical units.
time (UTC)temp
F
wind
direction
speed
MPH
gust
MPH
rain 1hr
in
rain 24hr
in
rain mn
in
humidity
%
barometer
mb
20260831085008 60 233 5.0 6.0 0.00 0.00 0.00 99 1018.1
20260831084507 61 153 2.0 2.0 0.00 0.00 0.00 99 1017.9
20260831084008 60 168 3.0 3.0 0.00 0.00 0.00 99 1017.9
20260831083508 60 227 4.0 4.0 0.00 0.00 0.00 99 1017.8
20260831083008 60 214 3.0 3.0 0.00 0.00 0.00 99 1017.6
20260831082507 59 238 4.0 4.0 0.00 0.00 0.00 99 1017.6
20260831082007 59 234 5.0 5.0 0.00 0.00 0.00 99 1017.5
20260831081507 59 228 6.0 6.0 0.00 0.00 0.00 99 1017.5
20260831081006 59 235 4.0 4.0 0.00 0.00 0.00 98 1017.4
20260831080508 59 256 5.0 5.0 0.00 0.00 0.00 98 1017.1
20260831080007 59 283 3.0 4.0 0.00 0.00 0.00 98 1017.0
20260831075507 59 273 1.0 2.0 0.00 0.00 0.00 98 1016.9
20260831075008 59 242 3.0 3.0 0.00 0.00 0.00 98 1017.3
20260831074508 59 269 0.0 0.0 0.00 0.00 0.00 98 1017.2
20260831074007 58 248 2.0 2.0 0.00 0.00 0.00 98 1016.9
20260831073508 58 256 0.0 0.0 0.00 0.00 0.00 98 1016.8
20260831073009 58 165 0.0 1.0 0.00 0.00 0.00 98 1017.0
20260831072508 58 266 1.0 2.0 0.00 0.00 0.00 98 1016.9
20260831072008 58 247 2.0 2.0 0.00 0.00 0.00 98 1017.1
20260831071508 58 247 3.0 4.0 0.00 0.00 0.00 98 1017.3
20260831071006 58 276 3.0 3.0 0.00 0.00 0.00 98 1017.3
20260831070507 58 254 2.0 3.0 0.00 0.00 0.00 98 1017.3
20260831065508 58 256 6.0 8.0 0.00 0.00 0.00 98 1017.6
20260831065008 58 279 10.0 11.0 0.00 0.00 0.00 97 1017.9
20260831064507 58 267 8.0 14.0 0.00 0.00 0.00 97 1018.0
20260831064007 58 272 13.0 17.0 0.00 0.00 0.00 97 1017.9
20260831063507 58 278 15.0 19.0 0.00 0.00 0.00 97 1017.6
20260831063008 58 293 12.0 14.0 0.00 0.00 0.00 96 1017.5
20260831062508 59 279 17.0 19.0 0.00 0.00 0.00 95 1017.9
20260831062007 59 293 22.0 29.0 0.00 0.00 0.00 93 1017.0
20260831061508 61 255 19.0 28.0 0.00 0.00 0.00 87 1016.5
20260831061008 63 210 6.0 8.0 0.00 0.00 0.00 79 1015.8
20260831060508 64 172 6.0 6.0 0.00 0.00 0.00 75 1015.6
20260831060008 65 143 6.0 7.0 0.00 0.00 0.00 71 1015.6
20260831055507 65 165 6.0 6.0 0.00 0.00 0.00 74 1015.7
20260831055007 65 164 6.0 6.0 0.00 0.00 0.00 73 1015.6
20260831054507 64 160 5.0 6.0 0.00 0.00 0.00 75 1015.5
20260831054007 65 162 6.0 6.0 0.00 0.00 0.00 74 1015.6
20260831053508 64 170 6.0 6.0 0.00 0.00 0.00 75 1015.6
20260831053007 64 165 8.0 8.0 0.00 0.00 0.00 74 1015.7
20260831052507 64 166 8.0 9.0 0.00 0.00 0.00 75 1015.7
20260831052008 64 167 7.0 8.0 0.00 0.00 0.00 76 1015.8
20260831051508 64 164 8.0 9.0 0.00 0.00 0.00 74 1015.7
20260831051008 64 161 9.0 9.0 0.00 0.00 0.00 76 1015.7
20260831050508 64 169 7.0 9.0 0.00 0.00 0.00 76 1015.6
20260831050007 63 167 9.0 9.0 0.00 0.00 0.00 78 1015.7
20260831045508 63 168 9.0 10.0 0.00 0.00 0.00 78 1015.8
20260831045007 63 171 9.0 10.0 0.00 0.00 0.00 79 1015.9
20260831044508 63 171 9.0 9.0 0.00 0.00 0.00 79 1015.9
20260831044007 62 175 9.0 9.0 0.00 0.00 0.00 81 1015.6
20260831043507 63 176 10.0 10.0 0.00 0.00 0.00 80 1016.0
20260831043008 62 172 9.0 9.0 0.00 0.00 0.00 80 1015.8
20260831042507 62 169 9.0 10.0 0.00 0.00 0.00 80 1016.0
20260831042007 62 171 7.0 9.0 0.00 0.00 0.00 80 1016.2
20260831041508 63 172 8.0 9.0 0.00 0.00 0.00 79 1015.9
20260831041008 62 176 10.0 11.0 0.00 0.00 0.00 80 1016.2
20260831040508 62 180 10.0 11.0 0.00 0.00 0.00 81 1016.2
20260831040009 62 177 11.0 12.0 0.00 0.00 0.00 80 1016.1
20260831035507 62 171 8.0 9.0 0.00 0.00 0.00 80 1016.0
20260831035008 62 171 9.0 10.0 0.00 0.00 0.00 80 1015.8
20260831034507 62 167 9.0 9.0 0.00 0.00 0.00 80 1015.9
20260831034008 62 171 10.0 10.0 0.00 0.00 0.00 81 1016.2
20260831033507 64 180 9.0 9.0 0.00 0.00 0.00 76 1016.1
20260831033008 63 179 8.0 9.0 0.00 0.00 0.00 79 1016.3
20260831032508 63 175 9.0 9.0 0.00 0.00 0.00 79 1016.5
20260831032007 63 178 9.0 10.0 0.00 0.00 0.00 79 1016.5
20260831031507 63 177 9.0 10.0 0.00 0.00 0.00 79 1016.4
20260831031008 63 183 8.0 10.0 0.00 0.00 0.00 79 1016.6
20260831030507 64 182 10.0 11.0 0.00 0.00 0.00 78 1016.6
20260831030008 64 188 9.0 9.0 0.00 0.00 0.00 74 1016.8
20260831025508 64 180 8.0 9.0 0.00 0.00 0.00 78 1016.5
20260831025007 64 183 9.0 10.0 0.00 0.00 0.00 76 1017.0
20260831024508 64 185 11.0 11.0 0.00 0.00 0.00 76 1016.8
20260831024008 64 179 9.0 10.0 0.00 0.00 0.00 77 1017.1
20260831023507 64 182 8.0 8.0 0.00 0.00 0.00 76 1016.8
20260831023008 64 190 8.0 9.0 0.00 0.00 0.00 77 1016.9
20260831022507 64 187 9.0 9.0 0.00 0.00 0.00 78 1016.9
20260831022007 64 192 9.0 10.0 0.00 0.00 0.00 75 1016.9
20260831021508 65 191 9.0 10.0 0.00 0.00 0.00 74 1017.1
20260831021007 65 185 10.0 10.0 0.00 0.00 0.00 74 1017.0
20260831020507 64 181 8.0 9.0 0.00 0.00 0.00 76 1016.9
20260831020008 64 187 9.0 10.0 0.00 0.00 0.00 75 1017.0
20260831015507 66 190 10.0 10.0 0.00 0.00 0.00 72 1017.0
20260831015008 65 190 9.0 10.0 0.00 0.00 0.00 71 1017.1
20260831014507 64 188 6.0 8.0 0.00 0.00 0.00 75 1016.9
20260831014007 64 190 8.0 9.0 0.00 0.00 0.00 77 1017.2
20260831013507 64 187 10.0 10.0 0.00 0.00 0.00 76 1017.4
20260831013008 64 189 9.0 9.0 0.00 0.00 0.00 74 1017.3
20260831012507 65 181 6.0 7.0 0.00 0.00 0.00 73 1017.1
20260831012007 67 198 7.0 8.0 0.00 0.00 0.00 68 1017.2
20260831011508 30 0 0.0 0.0 0.00 0.00 0.00 100 1017.2
20260831011007 30 0 0.0 0.0 0.00 0.00 0.00 100 1017.0
20260831010507 68 209 7.0 8.0 0.00 0.00 0.00 65 1017.1
20260831010008 68 209 7.0 8.0 0.00 0.00 0.00 65 1017.2
20260831005507 30 0 0.0 0.0 0.00 0.00 0.00 100 1017.3
20260831005008 30 0 0.0 0.0 0.00 0.00 0.00 100 1017.4
20260831004508 69 213 7.0 7.0 0.00 0.00 0.00 64 1017.4
20260831004007 69 213 7.0 7.0 0.00 0.00 0.00 64 1017.5
20260831003508 68 203 7.0 7.0 0.00 0.00 0.00 64 1017.4
20260831003007 69 208 5.0 6.0 0.00 0.00 0.00 62 1017.4
20260831002508 70 237 7.0 8.0 0.00 0.00 0.00 61 1017.4
20260831002007 69 205 7.0 7.0 0.00 0.00 0.00 63 1017.4
20260831001508 69 205 7.0 7.0 0.00 0.00 0.00 63 1017.5
20260831001007 68 196 6.0 7.0 0.00 0.00 0.00 64 1017.6
20260831000507 68 196 6.0 7.0 0.00 0.00 0.00 64 1017.5
20260831000008 69 199 6.0 8.0 0.00 0.00 0.00 64 1017.5
20260830235507 69 199 6.0 8.0 0.00 0.00 0.00 64 1017.4
20260830235008 69 197 6.0 8.0 0.00 0.00 0.00 64 1017.4
20260830234507 69 204 6.0 8.0 0.00 0.00 0.00 63 1017.6
20260830234008 69 198 8.0 8.0 0.00 0.00 0.00 63 1017.7
20260830233507 68 199 7.0 8.0 0.00 0.00 0.00 64 1017.6
20260830233008 69 199 7.0 7.0 0.00 0.00 0.00 63 1017.5
20260830232508 69 202 7.0 8.0 0.00 0.00 0.00 63 1017.5
20260830232007 69 201 8.0 8.0 0.00 0.00 0.00 63 1017.7
20260830231508 69 202 7.0 8.0 0.00 0.00 0.00 62 1017.6
20260830231008 69 192 8.0 8.0 0.00 0.00 0.00 64 1017.6
20260830230507 69 209 6.0 7.0 0.00 0.00 0.00 62 1017.8
20260830230008 69 205 6.0 8.0 0.00 0.00 0.00 63 1017.7
20260830225507 69 193 6.0 7.0 0.00 0.00 0.00 63 1017.7
20260830225008 69 207 7.0 8.0 0.00 0.00 0.00 63 1017.8
20260830224507 70 198 6.0 6.0 0.00 0.00 0.00 62 1018.0
20260830224008 69 215 7.0 8.0 0.00 0.00 0.00 62 1017.7
20260830223508 69 200 6.0 8.0 0.00 0.00 0.00 62 1017.8
20260830223009 69 176 5.0 6.0 0.00 0.00 0.00 63 1017.9
20260830222507 69 201 6.0 6.0 0.00 0.00 0.00 63 1017.7
20260830222007 70 208 5.0 8.0 0.00 0.00 0.00 61 1017.8
20260830221508 69 220 7.0 8.0 0.00 0.00 0.00 62 1017.9
20260830221007 69 208 7.0 8.0 0.00 0.00 0.00 63 1017.9
20260830220508 70 197 7.0 8.0 0.00 0.00 0.00 61 1017.9
20260830220008 70 197 5.0 6.0 0.00 0.00 0.00 60 1017.8
20260830215507 70 196 5.0 5.0 0.00 0.00 0.00 61 1017.7
20260830215008 69 205 4.0 5.0 0.00 0.00 0.00 62 1017.9
20260830214508 69 202 4.0 5.0 0.00 0.00 0.00 62 1018.0
20260830214008 70 213 6.0 6.0 0.00 0.00 0.00 61 1017.6
20260830213508 70 245 6.0 8.0 0.00 0.00 0.00 60 1017.7
20260830213008 70 251 6.0 7.0 0.00 0.00 0.00 60 1017.7
20260830212507 71 246 9.0 11.0 0.00 0.00 0.00 59 1018.0
20260830212007 71 243 9.0 11.0 0.00 0.00 0.00 59 1018.0
20260830211507 71 259 8.0 8.0 0.00 0.00 0.00 59 1017.7
20260830211007 71 256 8.0 8.0 0.00 0.00 0.00 59 1017.8
20260830210508 71 260 9.0 11.0 0.00 0.00 0.00 59 1017.8
20260830210007 71 260 9.0 11.0 0.00 0.00 0.00 59 1017.7
20260830205508 71 256 8.0 11.0 0.00 0.00 0.00 59 1018.1
20260830205008 70 263 10.0 12.0 0.00 0.00 0.00 60 1017.9
20260830204508 71 257 8.0 12.0 0.00 0.00 0.00 60 1018.2
20260830204007 70 255 10.0 11.0 0.00 0.00 0.00 62 1018.1
20260830203507 70 262 11.0 12.0 0.00 0.00 0.00 61 1017.9
20260830203008 70 259 10.0 11.0 0.00 0.00 0.00 60 1017.9
20260830202508 70 257 8.0 9.0 0.00 0.00 0.00 61 1018.1
20260830202007 71 261 9.0 9.0 0.00 0.00 0.00 60 1017.8
20260830201507 71 261 9.0 10.0 0.00 0.00 0.00 58 1017.7
20260830201008 72 260 9.0 9.0 0.00 0.00 0.00 56 1017.8
20260830200508 72 246 9.0 11.0 0.00 0.00 0.00 56 1018.0
20260830200007 72 252 10.0 13.0 0.00 0.00 0.00 56 1017.8
20260830195508 72 252 11.0 11.0 0.00 0.00 0.00 56 1017.9
20260830195008 73 252 10.0 12.0 0.00 0.00 0.00 55 1017.8
20260830194508 73 251 10.0 12.0 0.00 0.00 0.00 55 1017.9
20260830194008 73 249 9.0 11.0 0.00 0.00 0.00 55 1018.2
20260830193508 73 247 11.0 12.0 0.00 0.00 0.00 55 1017.9
20260830193007 73 244 8.0 9.0 0.00 0.00 0.00 56 1018.0
20260830192509 73 246 9.0 10.0 0.00 0.00 0.00 56 1017.9
20260830192007 73 235 7.0 11.0 0.00 0.00 0.00 56 1017.9
20260830191508 73 243 9.0 10.0 0.00 0.00 0.00 55 1017.9
20260830191007 73 253 9.0 11.0 0.00 0.00 0.00 54 1017.7
20260830190508 74 238 6.0 8.0 0.00 0.00 0.00 54 1017.9
20260830190008 74 240 7.0 9.0 0.00 0.00 0.00 54 1018.0
20260830185507 74 244 8.0 9.0 0.00 0.00 0.00 54 1018.0
20260830185007 73 238 8.0 9.0 0.00 0.00 0.00 54 1017.8
20260830184508 74 231 8.0 8.0 0.00 0.00 0.00 54 1017.8
20260830184008 73 238 8.0 9.0 0.00 0.00 0.00 54 1017.5
20260830183507 74 223 6.0 8.0 0.00 0.00 0.00 54 1017.8
20260830183008 74 235 6.0 8.0 0.00 0.00 0.00 54 1017.5
20260830182508 30 0 0.0 0.0 0.00 0.00 0.00 100 1017.6
20260830182008 74 214 6.0 7.0 0.00 0.00 0.00 53 1017.5
20260830181507 74 214 6.0 7.0 0.00 0.00 0.00 53 1017.6
20260830181007 74 237 6.0 7.0 0.00 0.00 0.00 53 1017.2
20260830180508 74 227 5.0 7.0 0.00 0.00 0.00 53 1017.5
20260830180008 74 240 7.0 8.0 0.00 0.00 0.00 53 1017.2
20260830175507 74 227 6.0 8.0 0.00 0.00 0.00 52 1017.2
20260830173007 30 0 0.0 0.0 0.00 0.00 0.00 100 1017.1
20260830172507 30 0 0.0 0.0 0.00 0.00 0.00 100 1017.2
20260830172007 30 0 0.0 0.0 0.00 0.00 0.00 100 1017.3
20260830171508 30 0 0.0 0.0 0.00 0.00 0.00 100 1017.1
20260830171006 30 0 0.0 0.0 0.00 0.00 0.00 100 1017.2
20260830170508 30 0 0.0 0.0 0.00 0.00 0.00 100 1017.2
20260830170008 30 0 0.0 0.0 0.00 0.00 0.00 100 1017.4
20260830165507 30 0 0.0 0.0 0.00 0.00 0.00 100 1017.2
20260830165007 30 0 0.0 0.0 0.00 0.00 0.00 100 1017.1
20260830164508 30 0 0.0 0.0 0.00 0.00 0.00 100 1017.3
20260830164008 75 236 6.0 8.0 0.00 0.00 0.00 51 1017.4
20260830163509 75 236 6.0 8.0 0.00 0.00 0.00 51 1017.1
20260830163007 75 231 4.0 5.0 0.00 0.00 0.00 50 1017.1
20260830162507 76 240 10.0 10.0 0.00 0.00 0.00 49 1017.2
20260830162007 76 248 4.0 6.0 0.00 0.00 0.00 50 1017.1
20260830161508 76 222 6.0 8.0 0.00 0.00 0.00 48 1017.3
20260830161007 76 210 8.0 9.0 0.00 0.00 0.00 48 1017.2
20260830160508 76 253 10.0 13.0 0.00 0.00 0.00 47 1017.3
20260830160007 76 242 9.0 12.0 0.00 0.00 0.00 48 1017.1
20260830155507 76 232 11.0 11.0 0.00 0.00 0.00 47 1017.2
20260830155007 76 241 6.0 7.0 0.00 0.00 0.00 47 1017.4
20260830154507 76 272 10.0 10.0 0.00 0.00 0.00 47 1017.4
20260830154008 76 260 8.0 8.0 0.00 0.00 0.00 47 1017.2
20260830153508 76 257 6.0 7.0 0.00 0.00 0.00 47 1017.2
20260830153007 76 254 7.0 10.0 0.00 0.00 0.00 47 1017.4
20260830152508 76 234 11.0 14.0 0.00 0.00 0.00 46 1017.3
20260830152007 76 245 12.0 14.0 0.00 0.00 0.00 46 1017.5
20260830151508 76 259 6.0 13.0 0.00 0.00 0.00 46 1017.5
20260830151007 76 227 9.0 13.0 0.00 0.00 0.00 46 1017.5
20260830150507 77 230 12.0 12.0 0.00 0.00 0.00 45 1017.4
20260830150007 77 236 21.0 25.0 0.00 0.00 0.00 44 1017.5
20260830145507 78 261 15.0 15.0 0.00 0.00 0.00 45 1017.5
20260830145008 76 244 5.0 7.0 0.00 0.00 0.00 46 1017.5
20260830144508 77 250 11.0 17.0 0.00 0.00 0.00 46 1017.6
20260830144007 77 242 12.0 17.0 0.00 0.00 0.00 45 1017.6
20260830143508 76 248 7.0 12.0 0.00 0.00 0.00 47 1017.6
20260830143008 76 254 13.0 14.0 0.00 0.00 0.00 46 1017.7
20260830142507 76 253 11.0 12.0 0.00 0.00 0.00 47 1017.6
20260830142008 76 252 14.0 19.0 0.00 0.00 0.00 46 1017.7
20260830141507 76 241 15.0 17.0 0.00 0.00 0.00 46 1017.7
20260830141007 76 245 17.0 19.0 0.00 0.00 0.00 46 1017.7
20260830140507 76 256 20.0 23.0 0.00 0.00 0.00 45 1017.7
20260830140009 77 259 9.0 13.0 0.00 0.00 0.00 45 1017.5
20260830135508 77 245 6.0 12.0 0.00 0.00 0.00 45 1017.5
20260830135007 77 300 7.0 10.0 0.00 0.00 0.00 46 1017.5
20260830134508 77 240 13.0 24.0 0.00 0.00 0.00 45 1017.8
20260830134008 76 255 11.0 12.0 0.00 0.00 0.00 46 1017.8
20260830133508 76 231 9.0 11.0 0.00 0.00 0.00 45 1017.8
20260830133008 76 231 18.0 18.0 0.00 0.00 0.00 45 1017.9
20260830132507 76 257 17.0 19.0 0.00 0.00 0.00 45 1018.0
20260830132007 76 240 12.0 18.0 0.00 0.00 0.00 46 1017.9
20260830131507 76 240 21.0 21.0 0.00 0.00 0.00 45 1017.9
20260830131007 76 253 20.0 20.0 0.00 0.00 0.00 46 1017.9
20260830130508 76 275 6.0 10.0 0.00 0.00 0.00 49 1017.9
20260830130007 76 259 9.0 11.0 0.00 0.00 0.00 49 1017.8
20260830125509 76 280 18.0 19.0 0.00 0.00 0.00 48 1017.7
20260830125009 76 274 17.0 17.0 0.00 0.00 0.00 49 1017.5
20260830124508 75 256 15.0 19.0 0.00 0.00 0.00 50 1017.8
20260830124008 75 285 12.0 13.0 0.00 0.00 0.00 50 1017.7
20260830123507 76 262 17.0 19.0 0.00 0.00 0.00 50 1017.9
20260830123008 76 264 4.0 12.0 0.00 0.00 0.00 50 1017.8
20260830122507 75 261 18.0 18.0 0.00 0.00 0.00 49 1017.8
20260830122008 75 287 12.0 15.0 0.00 0.00 0.00 51 1017.9
20260830121507 75 241 13.0 15.0 0.00 0.00 0.00 51 1017.7
20260830121008 75 254 13.0 15.0 0.00 0.00 0.00 52 1018.0
20260830120508 75 251 15.0 21.0 0.00 0.00 0.00 53 1017.8
20260830120008 75 268 10.0 17.0 0.00 0.00 0.00 52 1018.1
20260830115508 75 274 14.0 16.0 0.00 0.00 0.00 50 1018.0
20260830115009 75 246 12.0 17.0 0.00 0.00 0.00 51 1018.0
20260830114507 75 267 11.0 15.0 0.00 0.00 0.00 53 1018.1
20260830114007 75 257 18.0 21.0 0.00 0.00 0.00 51 1018.2
20260830113508 75 265 16.0 18.0 0.00 0.00 0.00 51 1018.0
20260830113008 74 265 14.0 20.0 0.00 0.00 0.00 51 1017.7
20260830112507 75 271 19.0 21.0 0.00 0.00 0.00 49 1018.0
20260830112008 75 280 17.0 20.0 0.00 0.00 0.00 52 1018.1
20260830111508 74 279 20.0 24.0 0.00 0.00 0.00 53 1017.8
20260830111008 74 237 9.0 11.0 0.00 0.00 0.00 52 1017.9
20260830110508 73 261 19.0 21.0 0.00 0.00 0.00 53 1018.0
20260830110008 73 248 10.0 17.0 0.00 0.00 0.00 54 1018.2
20260830105508 73 266 25.0 27.0 0.00 0.00 0.00 52 1017.9
20260830105007 73 265 21.0 26.0 0.00 0.00 0.00 54 1018.0
20260830104508 74 224 9.0 19.0 0.00 0.00 0.00 54 1018.0
20260830104009 74 258 22.0 23.0 0.00 0.00 0.00 53 1017.9
20260830103508 73 236 16.0 18.0 0.00 0.00 0.00 55 1018.1
20260830103008 74 246 16.0 18.0 0.00 0.00 0.00 54 1018.2
20260830102507 74 264 16.0 18.0 0.00 0.00 0.00 54 1018.2
20260830102007 74 259 16.0 16.0 0.00 0.00 0.00 55 1018.2
20260830101509 73 233 13.0 15.0 0.00 0.00 0.00 56 1018.3
20260830101007 73 253 11.0 14.0 0.00 0.00 0.00 56 1018.2
20260830100508 72 245 14.0 17.0 0.00 0.00 0.00 56 1018.1
20260830100008 72 230 12.0 15.0 0.00 0.00 0.00 57 1018.1
20260830095508 71 251 15.0 17.0 0.00 0.00 0.00 57 1018.3
20260830095008 71 244 8.0 11.0 0.00 0.00 0.00 58 1018.5
20260830094508 71 247 23.0 24.0 0.00 0.00 0.00 57 1018.3
20260830094008 71 264 18.0 24.0 0.00 0.00 0.00 57 1018.1
20260830093508 72 272 10.0 19.0 0.00 0.00 0.00 57 1018.3
20260830093008 72 239 24.0 27.0 0.00 0.00 0.00 55 1018.3
20260830092507 72 257 11.0 17.0 0.00 0.00 0.00 57 1018.3
20260830092007 71 243 14.0 16.0 0.00 0.00 0.00 58 1018.2
20260830091508 71 262 15.0 16.0 0.00 0.00 0.00 58 1018.1
20260830091009 71 260 12.0 18.0 0.00 0.00 0.00 59 1018.4
20260830090507 71 241 12.0 12.0 0.00 0.00 0.00 59 1018.4
20260830090008 71 244 10.0 16.0 0.00 0.00 0.00 59 1018.4
20260830085507 71 271 6.0 13.0 0.00 0.00 0.00 59 1018.6